Weather History for Toledo, OH

Change the Weather History Date:

Friday, September 14, 2012

  Actual Average Record
Temperature  
Mean Temperature 62 °F 65 °F  
Max Temperature 72 °F 76 °F 98 °F (1939)
Min Temperature 52 °F 54 °F 31 °F (1975)
Degree Days  
Heating Degree Days 3 3  
Month to date heating degree days 14 24  
Since 1 July heating degree days 17 38  
Cooling Degree Days 0 3  
Month to date cooling degree days 67 56  
Year to date cooling degree days 992 758  
Growing Degree Days 12 (Base 50)    
Moisture  
Dew Point 51 °F    
Average Humidity 62    
Maximum Humidity 93    
Minimum Humidity 31    
Precipitation  
Precipitation 0.12 in 0.09 in 1.30 in (1970)
Month to date precipitation 1.12 1.32  
Year to date precipitation 23.68 24.64  
Snow  
Snow 0.00 in 0.00 in - ()
Month to date snowfall 0.0 0.0  
Since 1 July snowfall 0.0 0.0  
Since 1 September snowfall 0.0 0.0  
Snow Depth 0.00 in    
Sea Level Pressure  
Sea Level Pressure 30.25 in    
Wind  
Wind Speed 7 mph (NNW)    
Max Wind Speed 18 mph    
Max Gust Speed 24 mph    
Visibility 9 miles    
Events Rain    
T = Trace of Precipitation, MM = Missing Value Source: NWS Daily Summary

Daily Weather History Graph

Daily Weather History Graph

Search for Another Location

Airport:

Trip Planner

Search our weather history database for the weather conditions in past years. The results will help you decide how hot, cold, wet, or windy it might be!

Date:

Astronomy

Sep. 14, 2012 Rise Set
Actual Time 7:14 AM EDT 7:45 PM EDT
Civil Twilight 6:47 AM EDT 8:13 PM EDT
Nautical Twilight 6:14 AM EDT 8:46 PM EDT
Astronomical Twilight 5:40 AM EDT 9:19 PM EDT
Moon 5:37 AM EDT (9/14) 6:41 PM EDT (9/14)
Length of Visible Light 13h 26m
Length of Day
12h 30m
Waning Crescent, 3% of the Moon is Illuminated
Sep 14
Waning Crescent
Sep 15
New
Sep 22
First Quarter
Sep 29
Full
Oct 8
Last Quarter

Hourly Weather History & Observations

Time (EDT) Temp. Dew Point Humidity Pressure Visibility Wind Dir Wind Speed Gust Speed Precip Events Conditions
12:52 AM 64.9 °F 57.0 °F 75% 30.22 in 10.0 mi NNW 8.1 mph - N/A   Overcast
1:52 AM 64.0 °F 55.9 °F 75% 30.21 in 10.0 mi North 6.9 mph - N/A   Overcast
2:52 AM 63.0 °F 55.9 °F 78% 30.21 in 10.0 mi North 9.2 mph - N/A   Overcast
3:22 AM 62.6 °F 55.4 °F 77% 30.21 in 10.0 mi NNE 3.5 mph - N/A   Overcast
3:52 AM 63.0 °F 57.0 °F 81% 30.19 in 10.0 mi North 3.5 mph - N/A   Overcast
4:52 AM 62.1 °F 57.0 °F 84% 30.20 in 10.0 mi NNW 10.4 mph - N/A   Overcast
5:45 AM 62.6 °F 57.2 °F 82% 30.21 in 10.0 mi North 10.4 mph - N/A   Overcast
5:52 AM 61.0 °F 57.0 °F 87% 30.21 in 10.0 mi NNW 8.1 mph - N/A   Overcast
6:16 AM 60.8 °F 55.4 °F 82% 30.21 in 10.0 mi North 5.8 mph - N/A   Overcast
6:24 AM 60.8 °F 55.4 °F 82% 30.21 in 10.0 mi North 5.8 mph - N/A   Overcast
6:41 AM 60.8 °F 55.4 °F 82% 30.22 in 10.0 mi North 10.4 mph - N/A   Overcast
6:52 AM 59.0 °F 55.9 °F 90% 30.22 in 10.0 mi NNW 12.7 mph - N/A   Overcast
7:52 AM 57.0 °F 54.0 °F 89% 30.23 in 9.0 mi North 13.8 mph - 0.01 in Rain Light Rain
8:52 AM 55.0 °F 52.0 °F 89% 30.25 in 6.0 mi North 11.5 mph 20.7 mph 0.03 in Rain Rain
9:01 AM 55.4 °F 53.6 °F 94% 30.26 in 9.0 mi NNW 15.0 mph - 0.01 in Rain Light Rain
9:32 AM 53.6 °F 51.8 °F 94% 30.28 in 4.0 mi North 13.8 mph 20.7 mph 0.02 in Rain Light Rain
9:35 AM 53.6 °F 51.8 °F 94% 30.27 in 2.5 mi North 15.0 mph 23.0 mph 0.02 in Rain Rain
9:42 AM 53.6 °F 51.8 °F 94% 30.28 in 2.0 mi North 11.5 mph 23.0 mph 0.04 in Rain Rain
9:47 AM 53.6 °F 50.0 °F 88% 30.28 in 4.0 mi NNW 15.0 mph - 0.04 in Rain Light Rain
9:52 AM 53.1 °F 50.0 °F 89% 30.28 in 8.0 mi North 12.7 mph - 0.04 in Rain Light Rain
10:52 AM 53.1 °F 51.1 °F 93% 30.30 in 7.0 mi NNW 11.5 mph 16.1 mph 0.02 in Rain Light Rain
11:52 AM 54.0 °F 52.0 °F 93% 30.30 in 10.0 mi North 5.8 mph - 0.02 in Rain Light Rain
12:52 PM 55.9 °F 51.1 °F 84% 30.30 in 10.0 mi Variable 3.5 mph - 0.00 in   Overcast
1:52 PM 61.0 °F 52.0 °F 72% 30.28 in 10.0 mi Calm Calm - N/A   Clear
2:52 PM 69.8 °F 48.2 °F 46% 30.26 in 10.0 mi North 5.8 mph - N/A   Partly Cloudy
3:52 PM 71.1 °F 44.1 °F 38% 30.24 in 10.0 mi NNW 9.2 mph - N/A   Clear
4:52 PM 72.0 °F 39.9 °F 31% 30.24 in 10.0 mi North 10.4 mph 23.0 mph N/A   Clear
5:52 PM 71.1 °F 39.0 °F 31% 30.25 in 10.0 mi NNW 10.4 mph - N/A   Clear
6:52 PM 69.1 °F 41.0 °F 36% 30.26 in 10.0 mi NW 6.9 mph - N/A   Clear
7:52 PM 64.9 °F 43.0 °F 45% 30.26 in 10.0 mi Calm Calm - N/A   Clear
8:52 PM 55.9 °F 48.9 °F 77% 30.28 in 10.0 mi Calm Calm - N/A   Clear
9:52 PM 53.1 °F 48.0 °F 83% 30.28 in 10.0 mi Calm Calm - N/A   Clear
10:52 PM 53.1 °F 48.0 °F 83% 30.29 in 10.0 mi WSW 3.5 mph - N/A   Clear
11:52 PM 55.9 °F 46.9 °F 72% 30.30 in 10.0 mi West 3.5 mph - N/A   Clear